Regional Weather Roundup
Issued by NWS

Home | Current Version | Previous Version | Graphics & Text | Print | Product List | Glossary On
Versions: 1 2 3 4 5 6 7 8 9 10 11 12 13 14 15 16 17 18 19 20 21 22 23 24 25 26 27 28 29 30 31 32 33 34 35 36 37 38 39 40 41 42 43 44 45 46 47 48 49 50
000
ASUS43 KIND 221609
RWRIN

WEATHER ROUNDUP FOR INDIANA
NATIONAL WEATHER SERVICE INDIANAPOLIS IN
1200 PM EDT TUE JUL 22 2014

NOTE: "FAIR" INDICATES FEW OR NO CLOUDS BELOW 12,000 FEET WITH NO
SIGNIFICANT WEATHER AND/OR OBSTRUCTIONS TO VISIBILITY.

* - STATION DOES NOT REPORT WEATHER SUCH AS PRECIPITATION OR FOG.

+ - STATION NOT QUALITY CONTROLLED BY THE NATIONAL WEATHER SERVICE.
    USE DATA WITH CAUTION...ESPECIALLY DEWPOINT AND RELATIVE
    HUMIDITY OBSERVATIONS.

INZ001>003-010>013-019-020-221700-
NORTHWEST INDIANA

CITY           SKY/WX    TMP DP  RH WIND       PRES   REMARKS
GARY /AIRPORT/ MOSUNNY   82  66  57 SW12G25   30.03S
KNOX *+        SUNNY     82  65  57 SW14G21   30.03F
LA PORTE +     SUNNY     81  65  59 SW16      30.04S
MICHIGAN CITY+ SUNNY     81  64  57 S14       30.04R
MONTICELLO +   SUNNY     81  69  67 S10       30.06F
RENSSELAER +   SUNNY     81  70  69 S12G20    30.06S
VALPARAISO     SUNNY     81  66  60 SW20G25   30.05S

$$

LMZ046-743>745-221700-
SOUTHERN LAKE MICHIGAN

STATION/POSITION TIME  TEMP WIND        PRES
                       AIR  DIR/SP/G
                 (UTC) (F)  (DEG/KT/KT) (MB)
BURNS HARBOR     1600   79  200/ 17/ 22 1016.9S
MICHIGAN CITY    1600   78  180/ 13/ 17   N/A

$$

INZ004-005-014>016-021>024-221700-
NORTH CENTRAL INDIANA

CITY           SKY/WX    TMP DP  RH WIND       PRES   REMARKS
ELKHART        SUNNY     82  64  54 S9G18     30.05F
GOSHEN         SUNNY     83  66  56 SW17G24   30.05F
LOGANSPORT +   SUNNY     82  64  54 S10       30.08S
PERU/GRISSOM   SUNNY     83  69  62 SW13      30.08F
ROCHESTER +    SUNNY     84  64  51 SW12      30.07F
SOUTH BEND     SUNNY     83  66  56 S15       30.04F
WARSAW +       SUNNY     81  66  61 SW9       30.06F

$$

INZ006>009-017-018-025>027-221700-
NORTHEAST INDIANA

CITY           SKY/WX    TMP DP  RH WIND       PRES   REMARKS
ANGOLA *+      SUNNY     84  66  54 SW12      30.06F
AUBURN +       SUNNY     84  61  45 S7        30.08F
FORT WAYNE     MOSUNNY   85  64  49 SW13      30.08F
HUNTINGTON +   SUNNY     83  65  55 SW9       30.07F

$$

INZ028-029-035-036-043>045-051>053-221700-
WEST CENTRAL INDIANA

CITY           SKY/WX    TMP DP  RH WIND       PRES   REMARKS
GREENCASTLE +  SUNNY     81  70  69 S6        30.11S
LAFAYETTE      MOSUNNY   81  68  64 SW7       30.07F
TERRE HAUTE    SUNNY     83  68  60 SW6       30.10S

$$

INZ030>032-037>040-046>048-054>057-064-065-221700-
CENTRAL INDIANA

CITY           SKY/WX    TMP DP  RH WIND       PRES   REMARKS
CP ATTERBURY + MOSUNNY   84  64  51 SW5       30.11S HAZE
COLUMBUS       SUNNY     84  68  58 CALM      30.11F
INDIANAPOLIS   MOSUNNY   83  65  54 SW9       30.10S
-EAGLE CREEK   MOSUNNY   84  64  50 S12       30.09F
KOKOMO *+      MOSUNNY   84  68  58 SW15      30.08F
MARION +       SUNNY     82  65  57 SW8       30.10S
MT COMFORT *+  SUNNY     84  70  61 S8        30.10F
SHELBYVILLE    SUNNY     85  67  54 SW5       30.09F
ZIONSVILLE +   MOSUNNY   84  64  51 SW9       30.11S

$$

INZ033-034-041-042-049-050-058-059-221700-
EAST CENTRAL INDIANA

CITY           SKY/WX    TMP DP  RH WIND       PRES   REMARKS
MUNCIE         MOSUNNY   84  64  50 SW9       30.09F

$$

INZ060-061-067>069-081>083-085>088-221700-
SOUTHWEST INDIANA

CITY           SKY/WX    TMP DP  RH WIND       PRES   REMARKS
EVANSVILLE     SUNNY     86  68  54 CALM      30.09S
HUNTINGBURG *+ SUNNY     84  70  61 W5        30.10S
WASHINGTON +   SUNNY     83  70  64 CALM      30.10S

$$

INZ062-063-066-070>080-084-089>092-221700-
SOUTH CENTRAL AND SOUTHEAST INDIANA

CITY           SKY/WX    TMP DP  RH WIND       PRES   REMARKS
BEDFORD +      SUNNY     84  64  51 SW5       30.11
BLOOMINGTON    MOSUNNY   84  67  56 S7        30.11S
SEYMOUR +      SUNNY     81  54  39 SW5       30.10

$$




USA.gov is the U.S. government's official web portal to all federal, state and local government web resources and services.